Change the Weather History Date:

Thursday, August 30, 2012

  Actual Average Record
Temperature  
Mean Temperature 70 °F 63 °F  
Max Temperature 84 °F 82 °F 92 °F (1996)
Min Temperature 56 °F 44 °F 29 °F (1942)
Degree Days  
Heating Degree Days 0 3  
Month to date heating degree days 3 38  
Since 1 June heating degree days 122 236  
Since 1 July heating degree days 6 61  
Cooling Degree Days 5 1  
Month to date cooling degree days 133 76  
Year to date cooling degree days 308 211  
Since 1 June cooling degree days 308 210  
Growing Degree Days 20 (Base 50)    
Moisture  
Dew Point 49 °F    
Average Humidity 56    
Maximum Humidity 86    
Minimum Humidity 26    
Precipitation  
Precipitation 0.03 in 0.02 in 0.92 in (2000)
Month to date precipitation 2.48 0.87  
Year to date precipitation 7.53 6.61  
Snow  
Snow 0.00 in 0.00 in 0.00 in (1893)
Month to date snowfall 0.0 0.0  
Since 1 June snowfall T 0.1  
Since 1 July snowfall 0.0 0.0  
Snow Depth 0.00 in    
Sea Level Pressure  
Sea Level Pressure 30.00 in    
Wind  
Wind Speed 10 mph (South)    
Max Wind Speed 28 mph    
Max Gust Speed 36 mph    
Visibility 10 miles    
Events Rain , Thunderstorm    
T = Trace of Precipitation, MM = Missing Value Source: NWS Daily Summary

Daily Weather History Graph

Daily Weather History Graph

Search for Another Location

Airport or City:

Trip Planner

Search our weather history database for the weather conditions in past years. The results will help you decide how hot, cold, wet, or windy it might be!

Date:

Astronomy

Aug. 30, 2012 Rise Set
Actual Time 6:06 AM PDT 7:12 PM PDT
Civil Twilight 5:39 AM PDT 7:39 PM PDT
Nautical Twilight 5:06 AM PDT 8:12 PM PDT
Astronomical Twilight 4:31 AM PDT 8:46 PM PDT
Moon 6:29 PM PDT (8/30) 5:12 AM PDT (8/30)
Length of Visible Light 14h 00m
Length of Day
13h 05m
Waxing Gibbous, 99% of the Moon is Illuminated
Aug 30
Waxing Gibbous
Aug 31
Full
Sep 8
Last Quarter
Sep 15
New
Sep 22
First Quarter

Hourly Weather History & Observations

Time (PDT) Temp. Dew Point Humidity Pressure Visibility Wind Dir Wind Speed Gust Speed Precip Events Conditions
12:53 AM 62.1 °F 48.0 °F 60% 29.84 in 10.0 mi SSE 11.5 mph - N/A   Mostly Cloudy
1:02 AM 60.8 °F 48.2 °F 63% 30.16 in 10.0 mi SSE 10.4 mph - N/A Thunderstorm Thunderstorm
1:17 AM 60.8 °F 48.2 °F 63% 30.15 in 10.0 mi South 12.7 mph - N/A   Partly Cloudy
1:53 AM 57.9 °F 48.0 °F 70% 29.84 in 10.0 mi South 12.7 mph - N/A   Clear
2:53 AM 57.9 °F 46.0 °F 65% 29.84 in 10.0 mi South 12.7 mph - N/A   Mostly Cloudy
3:53 AM 59.0 °F 46.9 °F 64% 29.81 in 10.0 mi South 8.1 mph - N/A   Clear
4:53 AM 59.0 °F 46.0 °F 62% 29.85 in 10.0 mi South 10.4 mph - N/A   Mostly Cloudy
5:53 AM 62.1 °F 46.0 °F 56% 29.83 in 10.0 mi SSW 9.2 mph - N/A   Partly Cloudy
6:53 AM 59.0 °F 48.0 °F 67% 29.87 in 10.0 mi SE 6.9 mph - N/A   Scattered Clouds
7:53 AM 61.0 °F 48.9 °F 64% 29.88 in 10.0 mi South 6.9 mph - N/A   Clear
8:09 AM 62.6 °F 51.8 °F 68% 30.16 in 10.0 mi South 6.9 mph - N/A Thunderstorm Thunderstorm
8:23 AM 66.2 °F 48.2 °F 52% 30.16 in 10.0 mi SSW 9.2 mph - N/A   Clear
8:53 AM 69.1 °F 48.0 °F 47% 29.87 in 10.0 mi SSW 8.1 mph - N/A   Scattered Clouds
9:53 AM 72.0 °F 48.0 °F 43% 29.86 in 10.0 mi South 6.9 mph - N/A   Clear
10:53 AM 77.0 °F 46.9 °F 34% 29.83 in 10.0 mi Variable 6.9 mph - N/A   Partly Cloudy
11:05 AM 77.0 °F 46.4 °F 34% 30.15 in 10.0 mi Calm Calm - N/A Thunderstorm Thunderstorm
11:53 AM 79.0 °F 44.1 °F 29% 29.80 in 10.0 mi SSW 16.1 mph 21.9 mph N/A Thunderstorm Thunderstorm
12:31 PM 80.6 °F 44.6 °F 28% 30.13 in 10.0 mi South 13.8 mph 21.9 mph N/A Thunderstorm Thunderstorm
12:53 PM 82.0 °F 44.1 °F 26% 29.81 in 10.0 mi South 15.0 mph 20.7 mph N/A Thunderstorm Thunderstorm
1:11 PM 82.4 °F 44.6 °F 26% 30.12 in 10.0 mi South 15.0 mph - N/A   Clear
1:18 PM 80.6 °F 44.6 °F 28% 30.12 in 10.0 mi South 18.4 mph 26.5 mph N/A Thunderstorm Thunderstorm
1:53 PM 81.0 °F 44.1 °F 27% 29.80 in 10.0 mi South 16.1 mph 24.2 mph N/A Thunderstorm Thunderstorm
1:56 PM 80.6 °F 44.6 °F 28% 30.10 in 10.0 mi SSE 15.0 mph 24.2 mph N/A Thunderstorm Thunderstorm
2:23 PM 82.4 °F 44.6 °F 26% 30.09 in 10.0 mi SSW 13.8 mph 19.6 mph N/A Thunderstorm Thunderstorm
2:53 PM 82.4 °F 42.8 °F 25% 30.07 in 10.0 mi SSW 12.7 mph - N/A Thunderstorm Thunderstorm
3:53 PM 81.0 °F 43.0 °F 26% 29.75 in 10.0 mi SW 16.1 mph 23.0 mph N/A Thunderstorm Thunderstorm
4:53 PM 71.6 °F 44.6 °F 38% 30.11 in 10.0 mi NNE 15.0 mph 35.7 mph N/A Thunderstorm Thunderstorm
5:00 PM 69.8 °F 44.6 °F 40% 30.11 in 10.0 mi North 20.7 mph 27.6 mph N/A Thunderstorm Thunderstorm
5:53 PM 64.0 °F 50.0 °F 60% 29.90 in 10.0 mi North 17.3 mph 28.8 mph N/A   Mostly Cloudy
6:03 PM 64.4 °F 48.2 °F 56% 30.18 in 10.0 mi North 12.7 mph - N/A Thunderstorm Thunderstorm
6:28 PM 62.6 °F 51.8 °F 68% 30.19 in 10.0 mi WNW 12.7 mph 19.6 mph 0.00 in Rain , Thunderstorm Light Thunderstorms and Rain
6:39 PM 60.8 °F 53.6 °F 77% 30.19 in 10.0 mi NNE 13.8 mph 18.4 mph 0.00 in Rain Light Rain
6:53 PM 57.9 °F 54.0 °F 87% 29.97 in 7.0 mi NNE 12.7 mph 25.3 mph 0.03 in Rain Light Rain
7:53 PM 57.0 °F 53.1 °F 87% 29.96 in 10.0 mi North 9.2 mph - 0.00 in   Clear
8:08 PM 57.2 °F 53.6 °F 88% 30.18 in 10.0 mi North 6.9 mph - N/A Thunderstorm Thunderstorm
8:22 PM 57.2 °F 53.6 °F 88% 30.18 in 10.0 mi NW 6.9 mph - N/A   Partly Cloudy
8:29 PM 55.4 °F 53.6 °F 94% 30.18 in 10.0 mi West 6.9 mph - N/A Thunderstorm Thunderstorm
8:53 PM 55.9 °F 52.0 °F 87% 29.91 in 10.0 mi NNW 8.1 mph - N/A   Partly Cloudy
9:04 PM 57.2 °F 53.6 °F 88% 30.17 in 10.0 mi Calm Calm - N/A Thunderstorm Thunderstorm
9:17 PM 57.2 °F 51.8 °F 82% 30.17 in 10.0 mi NE 3.5 mph - N/A Thunderstorm Scattered Clouds
9:37 PM 57.2 °F 53.6 °F 88% 30.18 in 10.0 mi NNW 4.6 mph - N/A   Mostly Cloudy
9:53 PM 57.0 °F 53.1 °F 87% 29.92 in 10.0 mi North 3.5 mph - N/A   Overcast
10:45 PM 57.2 °F 53.6 °F 88% 30.19 in 10.0 mi NE 4.6 mph - 0.00 in Rain , Thunderstorm Light Thunderstorms and Rain
10:53 PM 57.0 °F 54.0 °F 89% 29.90 in 10.0 mi East 6.9 mph - 0.00 in Rain , Thunderstorm Light Thunderstorms and Rain
11:24 PM 57.2 °F 53.6 °F 88% 30.18 in 10.0 mi SSW 5.8 mph - 0.00 in   Mostly Cloudy
11:53 PM 57.0 °F 54.0 °F 89% 29.89 in 10.0 mi SSW 4.6 mph - 0.00 in   Mostly Cloudy